Notices

What's New in latest Release from April 7th, 2021:

- Updated Glossary, including Speed of Maximum Gust, and Total Hourly Precipitation

- Updated national and regional climate services offices contacts and prices information

- Addition of station inventory lists for 1981-2010, 1971-2000, and 1961-1990 Normals.

If you haven't already, please take our survey and provide feedback about our website: https://eccc.sondage-survey.ca/f/LanguageSelection.aspx?s=442ca660-fcf1-47c0-95a9-59707d6fd709

Hourly Data Report for January 20, 2020

SATURNA ISLAND CS
BRITISH COLUMBIA
Current Station Operator: ECCC - MSC

48°47'02.067" N
123°02'41.082" W
24.40 m
1017101
71473
WEZ

Download Data

Hourly Data (January 2020)
Hourly Data Report for January 20, 2020
TIME
LST
Temp Definition
°C
Dew Point Definition
°C
Rel Hum Definition
%
Precip. Amount Definition
mm

Wind Dir Definition
10's deg

Wind Spd Definition
km/h
Visibility Definition
km
Stn Press Definition
kPa
Hmdx Definition


Wind Chill Definition


Weather Definition


00:00 8.3 5.5 83 0.0 9 24   101.02     LegendNANA
01:00 8.7 5.5 80 0.0 10 24   100.96     LegendNANA
02:00 8.1 5.4 83 0.0 5 12   100.92     LegendNANA
03:00 7.5 5.4 86 0.0 33 8   100.95     LegendNANA
04:00 8.2 6.1 87 0.2 9 14   100.84     LegendNANA
05:00 9.5 4.7 72 0.2 16 3   100.84     LegendNANA
06:00 9.7 3.5 65 0.0 23 8   100.87     LegendNANA
07:00 8.6 4.8 77 0.0 23 8   100.94     LegendNANA
08:00 9.6 5.8 77 0.0 16 24   100.94     LegendNANA
09:00 9.4 6.4 82 0.2 18 31   100.95     LegendNANA
10:00 9.6 6.5 81 0.0 19 29   100.97     LegendNANA
11:00 10.3 5.8 74 0.0 18 26   100.97     LegendNANA
12:00 10.8 6.2 73 0.0 17 9   100.94     LegendNANA
13:00 8.8 5.6 81 0.0 8 23   100.91     LegendNANA
14:00 8.3 6.3 88 0.0 8 23   100.82     LegendNANA
15:00 8.2 6.3 88 0.0 8 23   100.75     LegendNANA
16:00 7.8 6.3 90 0.2 8 19   100.70     LegendNANA
17:00 7.5 6.1 91 0.0 8 27   100.61     LegendNANA
18:00 7.5 6.1 91 0.0 9 16   100.57     LegendNANA
19:00 7.0 5.7 91 0.0 11 4   100.48     LegendNANA
20:00 6.9 5.7 92 0.2 7 13   100.39     LegendNANA
21:00 7.3 5.9 91 0.0 4 10   100.31     LegendNANA
22:00 7.7 6.2 90 0.0 7 17   100.21     LegendNANA
23:00 7.7 5.9 88 0.0 8 15   100.13     LegendNANA

Notes on Data Quality.

Legend

  • E = Estimated
  • M = Missing
  • NA = Not Available*
  • [empty] = Indicates an unobserved value
Date modified: